User: anonymous   Login
Location: �chenoz-la-M�line
(47.6009°N, 6.1354°E)
Time: 03:42:30
(UTC+00:00)
Language:

Cosmos 1634 Rocket - Orbit

View from above orbital plane
View from above orbital plane
View from above satellite
View from above satellite

Ground track
Ground track

The orbit data is extracted from the following two-line orbital elements,

1 15598U 85022B   21106.35918736 -.00000025  00000-0 -41053-4 0  9993
2 15598  82.9361 147.1001 0022832 152.8563 218.6099 13.76593107812727
Epoch (UTC): 16 April 2021 08:37:13
Eccentricity: 0.0022832
inclination: 82.9361°
perigee height: 959 km
apogee height: 993 km
right ascension of ascending node: 147.1001°
argument of perigee: 152.8563°
revolutions per day: 13.76593107
mean anomaly at epoch: 218.6099°
orbit number at epoch: 81272

The dashed part of the orbit path shows where the satellite is in the earth's shadow,  

DLR